Weather History for Joplin, MO

Change the Weather History Date:

Wednesday, September 4, 2013

  Actual Average Record
Temperature  
Mean Temperature 74 °F 76 °F  
Max Temperature 89 °F 87 °F 102 °F (1954)
Min Temperature 59 °F 64 °F 41 °F (1974)
Degree Days  
Heating Degree Days 0 0  
Month to date heating degree days 0 0  
Since 1 July heating degree days 0 1  
Cooling Degree Days 9 11  
Month to date cooling degree days 39 45  
Year to date cooling degree days 1303 1472  
Growing Degree Days 24 (Base 50)    
Moisture  
Dew Point 59 °F    
Average Humidity 59    
Maximum Humidity 84    
Minimum Humidity 34    
Precipitation  
Precipitation 0.00 in 0.15 in 5.23 in (1926)
Month to date precipitation T 0.63  
Year to date precipitation 35.46 31.60  
Snow  
Snow 0.00 in - - ()
Month to date snowfall 0.0  
Snow Depth 0.00 in    
Sea Level Pressure  
Sea Level Pressure 30.09 in    
Wind  
Wind Speed 4 mph (ESE)    
Max Wind Speed 7 mph    
Max Gust Speed -    
Visibility 10 miles    
Events      
T = Trace of Precipitation, MM = Missing Value Source: NWS Daily Summary

Daily Weather History Graph

Daily Weather History Graph

Search for Another Location

Airport:

Trip Planner

Search our weather history database for the weather conditions in past years. The results will help you decide how hot, cold, wet, or windy it might be!

Date:

Astronomy

Sep. 04, 2013 Rise Set
Actual Time 6:51 AM CDT 7:41 PM CDT
Civil Twilight 6:24 AM CDT 8:08 PM CDT
Nautical Twilight 5:53 AM CDT 8:39 PM CDT
Astronomical Twilight 5:21 AM CDT 9:11 PM CDT
Moon 6:04 AM CDT (9/4) 7:02 PM CDT (9/4)
Length of Visible Light 13h 43m
Length of Day
12h 50m
Waning Crescent, 1% of the Moon is Illuminated
Sep 4
Waning Crescent
Sep 5
New
Sep 12
First Quarter
Sep 19
Full
Sep 26
Last Quarter

Hourly Weather History & Observations

Time (CDT) Temp. Heat Index Dew Point Humidity Pressure Visibility Wind Dir Wind Speed Gust Speed Precip Events Conditions
12:53 AM 64.0 °F - 57.9 °F 80% 30.06 in 10.0 mi ESE 4.6 mph - N/A   Clear
1:53 AM 62.1 °F - 57.9 °F 86% 30.05 in 10.0 mi East 3.5 mph - N/A   Clear
2:53 AM 63.0 °F - 57.9 °F 84% 30.06 in 10.0 mi ESE 3.5 mph - N/A   Clear
3:53 AM 62.1 °F - 55.9 °F 80% 30.06 in 10.0 mi ESE 4.6 mph - N/A   Clear
4:53 AM 61.0 °F - 55.9 °F 83% 30.06 in 10.0 mi ESE 4.6 mph - N/A   Clear
5:53 AM 62.1 °F - 55.9 °F 80% 30.07 in 10.0 mi SE 3.5 mph - N/A   Clear
6:53 AM 60.1 °F - 55.9 °F 86% 30.10 in 10.0 mi East 3.5 mph - N/A   Clear
7:53 AM 64.9 °F - 57.9 °F 78% 30.12 in 10.0 mi SE 3.5 mph - N/A   Clear
8:53 AM 72.0 °F - 60.1 °F 66% 30.13 in 10.0 mi SSE 4.6 mph - N/A   Clear
9:53 AM 79.0 °F - 61.0 °F 54% 30.14 in 10.0 mi South 4.6 mph - N/A   Clear
10:53 AM 82.0 °F 82.4 °F 60.1 °F 47% 30.15 in 10.0 mi Variable 4.6 mph - N/A   Clear
11:53 AM 84.9 °F 84.2 °F 57.9 °F 40% 30.15 in 10.0 mi SSE 4.6 mph - N/A   Clear
12:53 PM 84.9 °F 84.2 °F 57.9 °F 40% 30.13 in 10.0 mi Variable 3.5 mph - N/A   Clear
1:53 PM 86.0 °F 85.4 °F 59.0 °F 40% 30.12 in 10.0 mi Variable 5.8 mph - N/A   Clear
2:53 PM 88.0 °F 86.7 °F 57.0 °F 35% 30.10 in 10.0 mi SE 3.5 mph - N/A   Clear
3:53 PM 88.0 °F 87.1 °F 59.0 °F 37% 30.08 in 10.0 mi Variable 4.6 mph - N/A   Clear
4:53 PM 88.0 °F 86.5 °F 55.9 °F 34% 30.06 in 10.0 mi Variable 4.6 mph - N/A   Clear
5:53 PM 86.0 °F 84.9 °F 57.0 °F 37% 30.07 in 10.0 mi East 6.9 mph - N/A   Clear
6:53 PM 84.0 °F 83.8 °F 59.0 °F 43% 30.06 in 10.0 mi East 5.8 mph - N/A   Clear
7:53 PM 78.1 °F - 59.0 °F 52% 30.07 in 10.0 mi Calm Calm - N/A   Clear
8:31 PM 75.2 °F - 62.6 °F 65% 30.10 in 10.0 mi Calm Calm - N/A   Clear
8:53 PM 75.0 °F - 62.1 °F 64% 30.09 in 10.0 mi Calm Calm - N/A   Clear
9:53 PM 71.1 °F - 62.1 °F 73% 30.10 in 10.0 mi East 5.8 mph - N/A   Clear
10:53 PM 71.1 °F - 61.0 °F 70% 30.11 in 10.0 mi East 4.6 mph - N/A   Clear
11:53 PM 70.0 °F - 60.1 °F 71% 30.12 in 10.0 mi ESE 3.5 mph - N/A   Clear